Station Historical Data
Daily Summary for October 31, 2017 Units:  Metric    English   Both
« Previous Day
Next Day »
Daily Weekly Monthly Yearly Custom
  High: Low: Average:
Temperature: 19 °C 5.4 °C 11.6 °C
Dew Point: 10.4 °C 4.1 °C 7.4 °C
Humidity: 93% 49% 78%
Wind Speed: 7.4km/h 0km/h 0.5km/h
Wind Gust: 7.4km/h - -
Wind- - SW
Pressure: 1023.6 hPa 1019.9 hPa -
Precipitation: 0 mm    
Historical Graphs
 
 
Tabular Data for October 31, 2017
Time Temperature Dew Point Pressure Wind Wind Speed Wind Gust Humidity Rainfall Rate (Hourly) Conditions
00:01 9.2 °C 6.1 °C 1019.9 hPa Calm     81% 0 mm CLR
00:06 9.2 °C 6.1 °C 1019.9 hPa Calm     81% 0 mm CLR
00:12 9.2 °C 6.1 °C 1019.9 hPa Calm     81% 0 mm CLR
00:17 9.2 °C 6.1 °C 1019.9 hPa Calm     81% 0 mm CLR
00:22 9.1 °C 6 °C 1019.9 hPa Calm     81% 0 mm CLR
00:27 9.1 °C 5.9 °C 1019.9 hPa Calm     81% 0 mm CLR
00:32 8.9 °C 5.8 °C 1019.9 hPa Calm     81% 0 mm CLR
00:37 8.9 °C 6 °C 1019.9 hPa Calm     82% 0 mm CLR
00:42 8.8 °C 5.9 °C 1019.9 hPa Calm     82% 0 mm CLR
00:52 8.6 °C 5.8 °C 1020.2 hPa Calm     83% 0 mm CLR
01:03 8.4 °C 5.7 °C 1020.2 hPa Calm     83% 0 mm CLR
01:08 8.5 °C 5.8 °C 1020.2 hPa Calm     83% 0 mm CLR
01:13 8.5 °C 5.8 °C 1020.2 hPa Calm     83% 0 mm CLR
01:18 8.5 °C 5.8 °C 1020.2 hPa Calm     83% 0 mm CLR
01:23 8.5 °C 5.8 °C 1020.2 hPa Calm     83% 0 mm CLR
01:28 8.4 °C 5.9 °C 1020.2 hPa Calm     84% 0 mm CLR
01:33 8.3 °C 5.8 °C 1020.2 hPa Calm     84% 0 mm CLR
01:39 8.2 °C 5.7 °C 1020.2 hPa Calm     84% 0 mm CLR
01:44 8.1 °C 5.7 °C 1020.2 hPa Calm     85% 0 mm CLR
01:49 8 °C 5.6 °C 1020.2 hPa Calm     85% 0 mm CLR
01:54 7.9 °C 5.5 °C 1020.2 hPa Calm     85% 0 mm CLR
01:59 7.8 °C 5.6 °C 1020.2 hPa Calm     86% 0 mm CLR
02:04 7.7 °C 5.5 °C 1020.2 hPa Calm     86% 0 mm CLR
02:09 7.6 °C 5.6 °C 1020.2 hPa Calm     87% 0 mm CLR
02:14 7.4 °C 5.4 °C 1020.2 hPa Calm     87% 0 mm CLR
02:19 7.4 °C 5.4 °C 1020.2 hPa Calm     87% 0 mm CLR
02:25 7.3 °C 5.4 °C 1020.2 hPa Calm     88% 0 mm CLR
02:30 7.2 °C 5.4 °C 1020.2 hPa Calm     88% 0 mm CLR
02:35 7.2 °C 5.3 °C 1020.2 hPa Calm     88% 0 mm CLR
02:40 7.1 °C 5.3 °C 1020.2 hPa Calm     88% 0 mm CLR
02:45 7.1 °C 5.2 °C 1020.2 hPa Calm     88% 0 mm CLR
02:50 7 °C 5.3 °C 1020.2 hPa Calm     89% 0 mm CLR
02:55 6.9 °C 5.3 °C 1020.2 hPa Calm     89% 0 mm CLR
03:00 6.9 °C 5.3 °C 1020.2 hPa Calm     89% 0 mm CLR
03:05 6.9 °C 5.2 °C 1020.2 hPa Calm     89% 0 mm CLR
03:10 6.8 °C 5.2 °C 1020.2 hPa Calm     89% 0 mm CLR
03:15 6.8 °C 5.2 °C 1020.2 hPa Calm     89% 0 mm CLR
03:20 6.8 °C 5.2 °C 1020.2 hPa Calm     89% 0 mm CLR
03:25 6.9 °C 5.2 °C 1020.2 hPa Calm     89% 0 mm CLR
03:30 6.9 °C 5.2 °C 1020.2 hPa Calm     89% 0 mm CLR
03:35 6.9 °C 5.3 °C 1020.5 hPa Calm     89% 0 mm CLR
03:40 7 °C 5.3 °C 1020.2 hPa Calm     89% 0 mm CLR
03:45 7 °C 5.3 °C 1020.5 hPa Calm     89% 0 mm CLR
03:50 7.1 °C 5.4 °C 1020.5 hPa Calm     89% 0 mm CLR
03:55 7.1 °C 5.4 °C 1020.5 hPa Calm     89% 0 mm CLR
04:00 7.1 °C 5.4 °C 1020.5 hPa Calm     89% 0 mm CLR
04:05 7.1 °C 5.2 °C 1020.5 hPa Calm     88% 0 mm CLR
04:10 7.1 °C 5.2 °C 1020.5 hPa Calm     88% 0 mm CLR
04:15 7.1 °C 5.2 °C 1020.5 hPa Calm     88% 0 mm CLR
04:20 7.1 °C 5.2 °C 1020.5 hPa Calm     88% 0 mm CLR
04:25 7.1 °C 5.2 °C 1020.5 hPa Calm     88% 0 mm CLR
04:30 7.1 °C 5.3 °C 1020.5 hPa Calm     88% 0 mm CLR
04:35 7.2 °C 5.5 °C 1020.5 hPa Calm     89% 0 mm CLR
04:40 7.2 °C 5.6 °C 1020.5 hPa Calm     89% 0 mm CLR
04:45 7.3 °C 5.4 °C 1020.5 hPa Calm     88% 0 mm CLR
04:50 7.3 °C 5.4 °C 1020.5 hPa Calm     88% 0 mm CLR
04:55 7.3 °C 5.4 °C 1020.9 hPa Calm     88% 0 mm CLR
05:00 7.3 °C 5.3 °C 1020.9 hPa Calm     87% 0 mm CLR
05:05 7.2 °C 5.2 °C 1020.9 hPa Calm     87% 0 mm CLR
05:10 7.2 °C 5.2 °C 1020.9 hPa Calm     87% 0 mm CLR
05:15 7.2 °C 5.1 °C 1020.9 hPa Calm     87% 0 mm CLR
05:20 7.1 °C 5.2 °C 1020.9 hPa Calm     88% 0 mm CLR
05:25 7.1 °C 5.2 °C 1020.9 hPa Calm     88% 0 mm CLR
05:30 6.9 °C 5.1 °C 1020.9 hPa Calm     88% 0 mm CLR
05:35 6.9 °C 5.1 °C 1020.9 hPa Calm     88% 0 mm CLR
05:40 6.8 °C 5 °C 1020.9 hPa Calm     88% 0 mm CLR
05:45 6.7 °C 5.1 °C 1020.9 hPa Calm     89% 0 mm CLR
05:50 6.6 °C 4.9 °C 1020.9 hPa Calm     89% 0 mm CLR
05:55 6.5 °C 4.8 °C 1021.2 hPa Calm     89% 0 mm CLR
06:00 6.4 °C 4.7 °C 1021.2 hPa Calm     89% 0 mm CLR
06:05 6.3 °C 4.6 °C 1021.2 hPa Calm     89% 0 mm CLR
06:10 6.2 °C 4.6 °C 1021.2 hPa Calm     89% 0 mm CLR
06:20 6.1 °C 4.6 °C 1021.2 hPa Calm     90% 0 mm CLR
06:25 6.1 °C 4.6 °C 1021.2 hPa Calm     90% 0 mm CLR
06:30 6.1 °C 4.6 °C 1021.6 hPa Calm     90% 0 mm CLR
06:35 6.1 °C 4.6 °C 1021.6 hPa Calm     90% 0 mm CLR
06:40 6.1 °C 4.6 °C 1021.6 hPa Calm     90% 0 mm CLR
06:45 6.1 °C 4.6 °C 1021.6 hPa Calm     90% 0 mm CLR
06:50 6 °C 4.5 °C 1021.6 hPa Calm     90% 0 mm CLR
06:55 5.9 °C 4.4 °C 1021.6 hPa Calm     90% 0 mm CLR
07:00 5.8 °C 4.3 °C 1021.6 hPa Calm     90% 0 mm CLR
07:05 5.7 °C 4.2 °C 1021.9 hPa Calm     90% 0 mm CLR
07:10 5.6 °C 4.1 °C 1021.9 hPa Calm     90% 0 mm CLR
07:15 5.6 °C 4.1 °C 1021.9 hPa Calm     90% 0 mm CLR
07:20 5.5 °C 4.2 °C 1021.9 hPa Calm     91% 0 mm CLR
07:25 5.4 °C 4.1 °C 1021.9 hPa Calm     91% 0 mm CLR
07:30 5.4 °C 4.1 °C 1021.9 hPa Calm     91% 0 mm CLR
07:35 5.4 °C 4.1 °C 1021.9 hPa Calm     91% 0 mm CLR
07:40 5.4 °C 4.1 °C 1021.9 hPa Calm     91% 0 mm CLR
07:45 5.4 °C 4.1 °C 1022.2 hPa Calm     91% 0 mm CLR
07:50 5.4 °C 4.1 °C 1022.2 hPa Calm     91% 0 mm CLR
07:55 5.4 °C 4.1 °C 1022.2 hPa Calm     91% 0 mm CLR
08:00 5.4 °C 4.1 °C 1022.2 hPa Calm     91% 0 mm CLR
08:05 5.4 °C 4.1 °C 1022.2 hPa Calm     91% 0 mm CLR
08:10 5.4 °C 4.1 °C 1022.2 hPa Calm     91% 0 mm CLR
08:15 5.4 °C 4.2 °C 1022.2 hPa Calm     92% 0 mm CLR
08:20 5.4 °C 4.2 °C 1022.2 hPa Calm     92% 0 mm CLR
08:25 5.4 °C 4.3 °C 1022.6 hPa Calm     92% 0 mm CLR
08:30 5.5 °C 4.3 °C 1022.6 hPa Calm     92% 0 mm CLR
08:35 5.6 °C 4.3 °C 1022.6 hPa Calm     92% 0 mm CLR
08:40 5.6 °C 4.4 °C 1022.6 hPa Calm     92% 0 mm CLR
08:45 5.7 °C 4.5 °C 1022.6 hPa Calm     92% 0 mm CLR
08:50 5.8 °C 4.6 °C 1022.9 hPa Calm     92% 0 mm CLR
08:55 5.9 °C 4.7 °C 1022.9 hPa Calm     92% 0 mm CLR
09:00 6.2 °C 4.9 °C 1022.9 hPa Calm     92% 0 mm CLR
09:05 6.3 °C 5.3 °C 1022.9 hPa Calm     93% 0 mm CLR
09:10 6.6 °C 5.6 °C 1022.9 hPa Calm     93% 0 mm CLR
09:15 7 °C 5.9 °C 1023.2 hPa Calm     93% 0 mm CLR
09:20 7.4 °C 6.3 °C 1023.2 hPa Calm     93% 0 mm CLR
09:25 7.8 °C 6.8 °C 1023.2 hPa Calm     93% 0 mm CLR
09:30 8.2 °C 7.1 °C 1023.2 hPa Calm   1.6 km/h 93% 0 mm CLR
09:35 8.6 °C 7.4 °C 1023.2 hPa Calm     92% 0 mm CLR
09:40 9.1 °C 7.4 °C 1023.2 hPa Calm     89% 0 mm CLR
09:45 9.5 °C 7.3 °C 1023.6 hPa Calm   1.6 km/h 86% 0 mm CLR
09:50 9.8 °C 7.1 °C 1023.6 hPa East 1.6 km/h 3.2 km/h 83% 0 mm CLR
09:55 10.1 °C 7.2 °C 1023.2 hPa Calm   1.6 km/h 82% 0 mm CLR
10:00 10.3 °C 7.4 °C 1023.2 hPa South 1.6 km/h 3.2 km/h 82% 0 mm CLR
10:05 10.6 °C 7.5 °C 1023.6 hPa Calm   1.6 km/h 81% 0 mm FEW
10:10 10.9 °C 7.6 °C 1023.6 hPa West 1.6 km/h 1.6 km/h 80% 0 mm FEW
10:15 11.1 °C 7.6 °C 1023.6 hPa Calm   1.6 km/h 79% 0 mm FEW
10:20 11.2 °C 7.7 °C 1023.6 hPa Calm   1.6 km/h 79% 0 mm FEW
10:25 11.4 °C 7.6 °C 1023.6 hPa West 1.6 km/h 4.8 km/h 77% 0 mm FEW
10:30 11.7 °C 7.8 °C 1023.6 hPa SW 3.2 km/h 3.2 km/h 77% 0 mm FEW
10:35 11.8 °C 7.7 °C 1023.6 hPa Calm   3.2 km/h 76% 0 mm FEW
10:40 12.1 °C 7.9 °C 1023.6 hPa Calm   3.2 km/h 76% 0 mm FEW
10:45 12.4 °C 8.1 °C 1023.6 hPa Calm   1.6 km/h 75% 0 mm FEW
10:50 12.9 °C 8.3 °C 1023.6 hPa Calm   1.6 km/h 74% 0 mm FEW
10:55 13.2 °C 8.7 °C 1023.6 hPa Calm   1.6 km/h 74% 0 mm FEW
11:00 13.7 °C 8.5 °C 1023.6 hPa Calm   1.6 km/h 71% 0 mm FEW
11:05 14.3 °C 8.8 °C 1023.6 hPa Calm   1.6 km/h 70% 0 mm FEW
11:10 14.6 °C 8.6 °C 1023.6 hPa Calm   1.6 km/h 67% 0 mm FEW
11:15 15.1 °C 9 °C 1023.6 hPa Calm     67% 0 mm FEW
11:20 15.4 °C 9.1 °C 1023.6 hPa Calm     66% 0 mm FEW
11:25 15.6 °C 9 °C 1023.6 hPa Calm   1.6 km/h 65% 0 mm FEW
11:30 15.7 °C 9.1 °C 1023.6 hPa Calm   3.2 km/h 65% 0 mm FEW
11:35 15.8 °C 8.8 °C 1023.6 hPa East 1.9 km/h 1.9 km/h 63% 0 mm FEW
11:40 15.8 °C 9.1 °C 1023.6 hPa Calm     64% 0 mm FEW
11:45 15.8 °C 9.2 °C 1023.6 hPa Calm     65% 0 mm FEW
11:50 15.8 °C 8.8 °C 1023.6 hPa Calm     63% 0 mm FEW
11:55 15.9 °C 8.9 °C 1023.6 hPa ENE 1.9 km/h 1.9 km/h 63% 0 mm FEW
12:00 15.9 °C 9.1 °C 1023.6 hPa WSW 1.9 km/h 1.9 km/h 64% 0 mm FEW
12:05 16 °C 9.2 °C 1023.6 hPa Calm   0.2 km/h 64% 0 mm FEW
12:11 16.1 °C 8.8 °C 1023.6 hPa Calm     62% 0 mm FEW
12:16 16.1 °C 8.8 °C 1023.2 hPa West 1.6 km/h   62% 0 mm FEW
12:21 16.2 °C 9.2 °C 1023.6 hPa North 1.9 km/h 1.9 km/h 63% 0 mm FEW
12:26 16.3 °C 9.1 °C 1023.6 hPa NNW 1.9 km/h 1.9 km/h 62% 0 mm FEW
12:31 16.4 °C 8.9 °C 1023.2 hPa North 1.9 km/h   61% 0 mm FEW
12:36 16.6 °C 8.8 °C 1023.2 hPa NW 1.9 km/h   60% 0 mm FEW
12:41 16.7 °C 8.9 °C 1023.2 hPa NW 1.9 km/h 1.9 km/h 60% 0 mm FEW
12:46 16.8 °C 9 °C 1022.9 hPa SW 5 km/h 5 km/h 60% 0 mm FEW
12:51 16.9 °C 8.6 °C 1022.9 hPa SW 1.9 km/h 1.9 km/h 58% 0 mm FEW
12:57 16.8 °C 8.5 °C 1022.9 hPa SSW 3.7 km/h 3.7 km/h 58% 0 mm FEW
13:02 16.8 °C 8.8 °C 1022.9 hPa Calm     59% 0 mm FEW
13:07 16.9 °C 8.6 °C 1022.9 hPa North 1.9 km/h 1.9 km/h 58% 0 mm FEW
13:12 17 °C 8.9 °C 1022.6 hPa NW 1.9 km/h 1.9 km/h 59% 0 mm FEW
13:17 17.1 °C 9 °C 1022.6 hPa SSW 3.7 km/h 3.7 km/h 59% 0 mm FEW
13:22 17.1 °C 8.8 °C 1022.6 hPa Calm     58% 0 mm FEW
13:27 17.2 °C 8.9 °C 1022.6 hPa SSW 3.7 km/h 3.7 km/h 58% 0 mm FEW
13:32 17.2 °C 8.9 °C 1022.2 hPa NNW 1.9 km/h 1.9 km/h 58% 0 mm FEW
13:37 17.4 °C 9.1 °C 1022.2 hPa WNW 1.9 km/h 1.9 km/h 58% 0 mm FEW
13:42 17.5 °C 8.9 °C 1022.2 hPa SW 5.6 km/h 5.6 km/h 57% 0 mm FEW
13:47 17.7 °C 8.8 °C 1022.2 hPa South 3.7 km/h 3.7 km/h 56% 0 mm FEW
13:52 17.7 °C 8.8 °C 1022.2 hPa Calm     56% 0 mm FEW
13:57 17.9 °C 9 °C 1021.9 hPa SW 1.9 km/h 1.9 km/h 56% 0 mm FEW
14:03 18.4 °C 8.6 °C 1021.9 hPa Calm   0.5 km/h 53% 0 mm FEW
14:08 18.6 °C 8.5 °C 1021.9 hPa Calm     52% 0 mm FEW
14:13 18.7 °C 8.3 °C 1021.6 hPa West 5.6 km/h 5.6 km/h 51% 0 mm FEW
14:18 18.7 °C 8.6 °C 1021.6 hPa SSE 1.9 km/h 1.9 km/h 52% 0 mm FEW
14:23 18.7 °C 8.4 °C 1021.6 hPa NNE 1.6 km/h   51% 0 mm FEW
14:28 18.8 °C 8.7 °C 1021.6 hPa West 3.7 km/h   52% 0 mm FEW
14:33 18.9 °C 9.1 °C 1021.6 hPa SSW 3.2 km/h 3.2 km/h 53% 0 mm FEW
14:38 18.9 °C 8.6 °C 1021.2 hPa WNW 1.9 km/h 1.9 km/h 51% 0 mm FEW
14:43 18.9 °C 8.6 °C 1021.2 hPa NNW 3.7 km/h 3.7 km/h 51% 0 mm FEW
14:48 18.9 °C 8.9 °C 1021.2 hPa East 7.4 km/h 7.4 km/h 52% 0 mm FEW
14:54 18.9 °C 9.1 °C 1021.2 hPa Calm     53% 0 mm FEW
14:59 18.9 °C 9.1 °C 1021.2 hPa Calm     53% 0 mm FEW
15:04 18.9 °C 9.7 °C 1021.2 hPa Calm     55% 0 mm FEW
15:09 19 °C 9.2 °C 1020.9 hPa SW 3.7 km/h 3.7 km/h 53% 0 mm FEW
15:14 18.9 °C 8.8 °C 1020.9 hPa ESE 1.9 km/h 1.9 km/h 52% 0 mm FEW
15:19 18.8 °C 8.2 °C 1020.9 hPa SSW 3.7 km/h 3.7 km/h 50% 0 mm FEW
15:24 18.8 °C 7.9 °C 1020.9 hPa SW 1.9 km/h 1.9 km/h 49% 0 mm FEW
15:29 18.9 °C 8.5 °C 1020.9 hPa Calm     51% 0 mm FEW
15:34 18.9 °C 9.2 °C 1020.9 hPa WSW 1.9 km/h   53% 0 mm FEW
15:39 18.9 °C 8.9 °C 1020.9 hPa WSW 1.9 km/h 1.9 km/h 52% 0 mm FEW
15:40 18.9 °C 8.9 °C 1020.9 hPa Calm   1.6 km/h 52% 0 mm FEW
15:45 18.9 °C 8.8 °C 1020.9 hPa Calm   1.6 km/h 52% 0 mm FEW
15:50 18.8 °C 8.4 °C 1020.9 hPa Calm   1.6 km/h 51% 0 mm FEW
15:55 18.7 °C 8.7 °C 1020.9 hPa Calm   3.2 km/h 52% 0 mm FEW
16:00 18.6 °C 8.6 °C 1020.5 hPa Calm   3.2 km/h 52% 0 mm FEW
16:05 18.6 °C 9.1 °C 1020.5 hPa Calm   1.6 km/h 54% 0 mm FEW
16:10 18.6 °C 8.8 °C 1020.5 hPa Calm   4.8 km/h 53% 0 mm FEW
16:11 18.6 °C 8.2 °C 1020.5 hPa SW 1.9 km/h 1.9 km/h 51% 0 mm FEW
16:16 18.5 °C 8.4 °C 1020.5 hPa ESE 1.9 km/h 1.9 km/h 52% 0 mm FEW
16:21 18.4 °C 8.1 °C 1020.5 hPa Calm     51% 0 mm FEW
16:26 18.4 °C 8.3 °C 1020.5 hPa Calm     52% 0 mm FEW
16:31 18.4 °C 8.9 °C 1020.5 hPa Calm     54% 0 mm FEW
16:36 18.4 °C 9.5 °C 1020.5 hPa Calm     56% 0 mm FEW
16:41 18.4 °C 9.4 °C 1020.5 hPa North 1.9 km/h   56% 0 mm FEW
16:46 18.4 °C 9.5 °C 1020.5 hPa Calm     56% 0 mm FEW
16:52 18.3 °C 9.7 °C 1020.5 hPa North 1.6 km/h 1.6 km/h 57% 0 mm FEW
16:57 18.2 °C 8.7 °C 1020.5 hPa Calm     54% 0 mm FEW
17:02 17.8 °C 9.9 °C 1020.5 hPa Calm     60% 0 mm FEW
17:07 17.6 °C 10 °C 1020.5 hPa East 1.9 km/h 1.9 km/h 61% 0 mm FEW
17:12 17.4 °C 10.1 °C 1020.5 hPa Calm     62% 0 mm FEW
17:17 17.3 °C 9.9 °C 1020.5 hPa Calm   0.2 km/h 62% 0 mm FEW
17:22 17.2 °C 9.8 °C 1020.5 hPa Calm     62% 0 mm FEW
17:27 17 °C 9.9 °C 1020.5 hPa Calm     63% 0 mm FEW
17:32 16.8 °C 10 °C 1020.5 hPa Calm     64% 0 mm FEW
17:37 16.7 °C 9.8 °C 1020.2 hPa Calm     64% 0 mm FEW
17:43 16.6 °C 9.7 °C 1020.5 hPa Calm     64% 0 mm FEW
17:48 16.4 °C 9.8 °C 1020.5 hPa Calm     65% 0 mm FEW
17:53 16.3 °C 9.9 °C 1020.5 hPa Calm     66% 0 mm FEW
17:58 16.2 °C 10.1 °C 1020.5 hPa East 1.9 km/h 1.9 km/h 67% 0 mm FEW
18:03 16.1 °C 10.2 °C 1020.5 hPa East 1.9 km/h   68% 0 mm FEW
18:08 15.9 °C 10.3 °C 1020.5 hPa Calm     69% 0 mm FEW
18:13 15.8 °C 10.4 °C 1020.5 hPa Calm     70% 0 mm FEW
18:18 15.7 °C 10.3 °C 1020.5 hPa Calm     70% 0 mm FEW
18:23 15.6 °C 10.4 °C 1020.5 hPa Calm     71% 0 mm FEW
18:28 15.6 °C 10.3 °C 1020.5 hPa Calm     71% 0 mm FEW
18:33 15.4 °C 10.4 °C 1020.5 hPa Calm     72% 0 mm FEW
18:38 15.3 °C 10.3 °C 1020.5 hPa Calm     72% 0 mm FEW
18:44 15.1 °C 10.3 °C 1020.5 hPa Calm     73% 0 mm FEW
18:49 14.9 °C 10.1 °C 1020.5 hPa Calm     73% 0 mm FEW
18:54 14.8 °C 9.8 °C 1020.5 hPa Calm     72% 0 mm FEW
18:59 14.7 °C 9.9 °C 1020.5 hPa Calm     73% 0 mm FEW
19:04 14.6 °C 9.8 °C 1020.5 hPa Calm     73% 0 mm FEW
19:09 14.4 °C 9.8 °C 1020.5 hPa Calm     74% 0 mm FEW
19:14 14.3 °C 9.9 °C 1020.5 hPa Calm     75% 0 mm FEW
19:19 14.2 °C 9.8 °C 1020.5 hPa Calm     75% 0 mm FEW
19:24 14.1 °C 9.9 °C 1020.9 hPa Calm     76% 0 mm FEW
19:30 13.9 °C 9.9 °C 1020.9 hPa Calm     77% 0 mm FEW
19:35 13.6 °C 9.8 °C 1020.9 hPa Calm     78% 0 mm FEW
19:40 13.3 °C 9.9 °C 1020.9 hPa Calm     80% 0 mm FEW
19:45 12.9 °C 9.8 °C 1020.9 hPa Calm     81% 0 mm FEW
19:50 12.7 °C 9.7 °C 1020.9 hPa Calm     82% 0 mm FEW
19:55 12.6 °C 9.6 °C 1020.9 hPa Calm     82% 0 mm FEW
20:00 12.5 °C 9.5 °C 1020.5 hPa Calm     82% 0 mm FEW
20:05 12.4 °C 9.4 °C 1020.9 hPa Calm     82% 0 mm FEW
20:10 12.3 °C 9.5 °C 1020.9 hPa Calm     83% 0 mm FEW
20:15 12.2 °C 9.6 °C 1020.9 hPa Calm     84% 0 mm FEW
20:20 12.1 °C 9.4 °C 1020.9 hPa Calm     84% 0 mm FEW
20:25 11.9 °C 9.3 °C 1020.9 hPa Calm     84% 0 mm FEW
20:30 11.9 °C 9.4 °C 1020.9 hPa Calm     85% 0 mm FEW
20:36 11.8 °C 9.3 °C 1020.9 hPa Calm     85% 0 mm FEW
20:41 11.7 °C 9.2 °C 1020.9 hPa Calm     85% 0 mm FEW
20:46 11.6 °C 9.3 °C 1020.9 hPa Calm     86% 0 mm FEW
20:51 11.4 °C 9.2 °C 1020.9 hPa Calm     86% 0 mm FEW
20:56 11.4 °C 9.1 °C 1020.9 hPa Calm     86% 0 mm FEW
21:01 11.3 °C 9 °C 1020.9 hPa Calm     86% 0 mm FEW
21:06 11.2 °C 8.9 °C 1020.9 hPa Calm     86% 0 mm FEW
21:11 11.1 °C 9.1 °C 1021.2 hPa Calm     87% 0 mm FEW
21:16 11.1 °C 9 °C 1021.2 hPa Calm     87% 0 mm FEW
21:22 11 °C 8.9 °C 1021.2 hPa Calm     87% 0 mm FEW
21:27 10.9 °C 9.1 °C 1021.6 hPa Calm     88% 0 mm FEW
21:32 10.9 °C 9 °C 1021.6 hPa Calm     88% 0 mm FEW
21:37 10.8 °C 8.9 °C 1021.6 hPa Calm     88% 0 mm FEW
21:42 10.7 °C 8.8 °C 1021.6 hPa Calm     88% 0 mm FEW
21:47 10.7 °C 8.8 °C 1021.6 hPa Calm     88% 0 mm FEW
21:52 10.7 °C 8.8 °C 1021.6 hPa Calm     88% 0 mm FEW
21:57 10.6 °C 8.9 °C 1021.6 hPa Calm     89% 0 mm FEW
22:03 10.5 °C 8.8 °C 1021.6 hPa Calm     89% 0 mm FEW
22:08 10.4 °C 8.7 °C 1021.6 hPa Calm     89% 0 mm FEW
22:13 10.4 °C 8.7 °C 1021.6 hPa Calm     89% 0 mm FEW
22:18 10.3 °C 8.6 °C 1021.6 hPa Calm     89% 0 mm FEW
22:23 10.2 °C 8.5 °C 1021.6 hPa Calm     89% 0 mm FEW
22:28 10.2 °C 8.4 °C 1021.6 hPa Calm     89% 0 mm FEW
22:33 10.2 °C 8.4 °C 1021.6 hPa Calm     89% 0 mm FEW
22:38 10.1 °C 8.4 °C 1021.6 hPa Calm     89% 0 mm FEW
22:43 10.1 °C 8.3 °C 1021.6 hPa Calm     89% 0 mm FEW
22:48 10 °C 8.4 °C 1021.6 hPa Calm     90% 0 mm FEW
22:53 9.9 °C 8.2 °C 1021.6 hPa Calm     89% 0 mm FEW
22:58 9.8 °C 8.1 °C 1021.6 hPa Calm     89% 0 mm FEW
23:03 9.8 °C 8.2 °C 1021.6 hPa Calm     90% 0 mm CLR
23:08 9.7 °C 8.2 °C 1021.9 hPa Calm     90% 0 mm CLR
23:14 9.7 °C 8.2 °C 1021.6 hPa Calm     90% 0 mm CLR
23:20 9.7 °C 8.1 °C 1021.6 hPa Calm     90% 0 mm CLR
23:22 9.6 °C 8.1 °C 1021.6 hPa Calm     90% 0 mm CLR
23:23 9.6 °C 8.1 °C 1021.6 hPa Calm     90% 0 mm CLR
23:26 9.6 °C 8 °C 1021.6 hPa Calm     90% 0 mm CLR
23:29 9.6 °C 8 °C 1021.6 hPa Calm     90% 0 mm CLR
23:31 9.5 °C 7.9 °C 1021.6 hPa Calm     90% 0 mm CLR
23:34 9.5 °C 7.9 °C 1021.6 hPa Calm     90% 0 mm CLR
23:39 9.6 °C 8.2 °C 1021.6 hPa Calm     91% 0 mm CLR
23:44 9.7 °C 8.3 °C 1021.6 hPa Calm     91% 0 mm CLR
23:49 9.8 °C 8.4 °C 1021.6 hPa Calm     91% 0 mm CLR
23:54 9.8 °C 8.4 °C 1021.6 hPa Calm     91% 0 mm CLR
23:59 9.7 °C 8.1 °C 1021.6 hPa Calm     90% 0 mm CLR
Piedmont Bend
Compliments of Weather Underground - 2 mb